Погода в Белогорске

Погода в Белогорске : погода сейчас, прогноз погоды и архив. Всё, что Вы хотите узнать о погоде в Белогорске!

Хотите узнать прогноз погоды в Белогорске? Тогда Вам сюда: Погода в Белогорске

Поиск расширенной информации на нашем сайте:

Другие новости

Новости СМИ2

Главная страница сайта

Новости сайта

03.07.2017

Напоминаем, что на нашем специализированном сайте Метеоцентр.Азия вы можете получить высокодетализированные автоматические прогнозы погоды по пунктам России, СНГ и мира в авиационном формате (включающие направление и скорость ветра, видимость, явления погоды, количество и форму облачности, нижнюю и верхнюю границу облачности).


Погода в Белогорске - сегодня

Время (UTC), дата Ветер
(°,м/с) 
Видим.   Явления Облачность Т
(°С)
Тd
(°С)
f(%) Тe
(°С)
Pmin
(гПа)
dP
(гПа)
Po
(мм)
O2
(г/м3)
Тmin Tmax R s Состояние
почвы
15 18.02.18 270 (З) 20000 м    ясно 
-20.6 -24.7 70 -21  1019.3  -0.4  746  327           
18 18.02.18 260 (З) 20000 м    ясно 
-21.5 -26.4 65 -22  1019.1  -0.3  746  328           
21 18.02.18 270 (З) 20000 м    ясно 
-21.2 -26.4 63 -22  1018.6  -0.5  746  328           
03 19.02.18 300 (СЗ) 20000 м    ясно 
-14.4 -25.5 38 -18  1017.4  -0.4  745  319           
06 19.02.18 320 (СЗ) 20000 м    ясно 
-12.4 -26.4 30 -17  1016.2  -1  745  316           
09 19.02.18 310 (СЗ) 20000 м    ясно 
-16.3 -25.8 44 -19  1017.3  0.8  745  321           
12 19.02.18 300 (СЗ) 20000 м    ясно 
-19.4 -27.9 47 -22  1018.3  0.7  746  325    -11.9       
15 19.02.18 240 (ЮЗ) н/о    н/о 
-23.7 -29.7 58 -24  1018  -0.7  745  331           
18 19.02.18 290 (З) 20000 м    ясно 
-23 -29.6 55 -26  1017.6  -0.3  745  330           
21 19.02.18 300 (СЗ) 20000 м    ясно 
-24.2 -30.1 58 -27  1017.3  -0.4  745  331           
03 20.02.18 320 (СЗ) 20000 м    ясно 
-16.2 -26.5 41 -20  1017.4  0.1  745  321           
06 20.02.18 300 (СЗ) 20000 м    3/0 верхняя 
[Ci fib]
-13 -25.8 33 -16  1016.4  -0.7  745  317           
09 20.02.18 300 (СЗ) 20000 м    ясно 
-15.2 -25.5 41 -15  1017.2  0.6  745  320           
12 20.02.18 270 (З) 20000 м    ясно 
-20 -26.7 55 -20  1018.2  0.6  746  326    -12.1       
15 20.02.18 230 (ЮЗ) 20000 м    ясно 
-22.5 -28.8 56 -25  1017.9  -0.6  745  329           
18 20.02.18 260 (З) 20000 м    ясно 
-22.5 -28.7 57 -25  1017.3  -0.6  745  329           
21 20.02.18 230 (ЮЗ) 20000 м    ясно 
-24.5 -29.3 64 -25  1016.8  -0.6  744  331           
03 21.02.18 220 (ЮЗ) 20000 м    ясно 
-14.6 -25.1 41 -15  1014.9  -0.5  743  318           
06 21.02.18 200 (Ю) 20000 м    4/0 верхняя 
[Ci fib]
-12.2 -23.4 39 -14  1013.1  -1.5  742  315           
09 21.02.18 тихо ()   20000 м    10/0 средняя, верхняя 
[Ac lent|Ci fib]
-15 -23.9 47 -15  1013.7  0.3  743  318           
15 21.02.18 тихо ()   20000 м    ясно 
-20.9 -24.2 75 -21  1014.3  -0.6  743  326           
18 21.02.18 тихо ()   20000 м    ясно 
-24.1 -26.7 79 -24  1014.4  -0.3  742  330           
21 21.02.18 тихо ()   20000 м    ясно 
-25.3 -28 78 -25  1014.5  742  331           
00 22.02.18 тихо ()   20000 м    3/0 верхняя 
[Ci fib]
-24.8 -28.1 74 -25  1015.8  1.3  743  331  -27.8      11  равномерный
сухой снег
100% 
03 22.02.18 340 (С) 20000 м    3/0 верхняя 
[Ci fib]
-16.4 -24.7 49 -19  1015.4  0.5  744  321           
Время (UTC), дата Ветер
(°,м/с) 
Видим.   Явления Облачность Т
(°С)
Тd
(°С)
f(%) Тe
(°С)
Pmin
(гПа)
dP
(гПа)
Po
(мм)
O2
(г/м3)
Тmin Tmax R s Состояние
почвы

Для получения пояснительной информации подведите курсор к названию столбца.

ПОГОДА в Белогорске - архив

Всё, что Вы хотите узнать о погоде в Белогорске - удобно и подробно!

Выберите нужную дату (начиная с 1 января 2015* года) и нажмите кнопку "Найти".
Будут отображены архивные сводки погоды по пункту Белогорск, начиная с указанной даты.


Отображать данные в формате CSV (для использования в таблицах Excel)


Внимание! Наш архив погоды предназначен исключительно для личного некоммерческого использования в познавательных целях. Если Вам необходимы официальные справки о состоянии погоды (для производственных, юридических, коммерческих и т.п. целей), обращайтесь в органы Росгидромета.

*Примечание: данная дата относится к архиву по метеостанциям СССР (Россия, СНГ, Балтия).
Архив по метеостанциям Зарубежной Европы и Азии (кроме Китая) хранится 10 дней, по другим регионам земного шара (Китай, Африка, Америка, Австралия, Океания) - 1 день.

Белогорск - район местоположения метеостанции


Название, широта, долгота, высота метеостанции:
Белогорск 50.9°ш. 128.5°д. 178 м над ур. моря [Российская Федерация]

Дополнительная информация

В oтличие oт бoльшинства пoгoдных сайтoв мы публикуем пoдрoбную метеoинфoрмацию в детальнoм прoфессиoнальнoм фoрмате.

Характеристики температуры и влажнoсти вoздуха измеряются на высoте 2 м в тени вдали oт зданий и деревьев.
Скoрoсть ветра измеряется на высoте 10 м (на урoвне рoста челoвека скoрoсть ветра ниже в 1.5-2 раза). Если метеoстанция нахoдится в гoрoде или в лесу, тo скoрoсть ветра занижена на 2-4 м/с пo сравнению с oткрытым местoм. Скoрoсть ветра над акватoриями крупных рек и oзёр, а также на вершинах хoлмoв на 2-5 м/с выше, чем в oбычных услoвиях.
Атмoсфернoе давление в разных тoчках местнoсти мoжет значительнo oтличаться oт давления на метеoстанции, в зависимoсти oт услoвий рельефа (при пoдъёме на 10 м давление пoнижается примернo на 1 мм рт.ст.).